Location: Coed Ely
(51.5661°N, 3.4150°W)
Time: 18:17:26
(UTC+00:00)

CZ-4 R/B - Pass Details

Date: 28 January 2021
Orbit: 530 x 599 km, 97.7° (Epoch: 26 February)

Event Time Altitude Azimuth Distance (km) Brightness Sun altitude
Rises 17:54:58 0° 141° (SE) 2,760 4.7 -9.2°
Reaches altitude 10° 17:57:15 10° 132° (SE) 1,855 3.7 -9.6°
Maximum altitude 18:00:52 34° 67° (ENE) 929 1.9 -10.1°
Drops below altitude 10° 18:04:28 10° 2° (N) 1,833 3.8 -10.6°
Sets 18:06:42 0° 353° (N) 2,721 4.8 -11.0°
